#timestamp,LO_Frequency,Hit,StdDev 
1656370815.1,286046998.7,N
1656370816.0,286046998.7,N
1656370835.8,286046998.9,N
1656370855.6,286046998.5,N
1656370875.5,286046998.6,N
1656370895.3,286047001.0,N
1656370915.1,286046998.6,N
1656370935.9,286046999.4,N
1656370955.7,286046999.1,N
1656370975.6,286046998.8,N
1656370995.4,286046998.7,N
1656371015.2,286046998.5,N
1656371035.1,286046996.6,Y
1656371036.0,286046996.6,P
1656371055.8,286046998.2,N
1656371075.7,286047000.9,N
1656371095.5,286047000.6,N
1656371115.3,286047001.0,N
1656371135.2,286047000.6,N
1656371155.9,286047000.6,N
1656371175.7,286047000.1,N
1656371195.6,286047002.8,N
1656371215.4,286046999.7,N
1656371235.3,286047002.8,N
1656371255.1,286047002.7,N
1656371275.8,286047000.1,N
1656371295.7,286046999.8,N
1656371315.5,286047000.6,N
1656371335.4,286047002.4,N
1656371355.2,286046999.8,N
1656371375.1,286047000.5,N
1656371376.0,286047000.5,N
1656371395.8,286046998.6,N
1656371415.6,286047000.3,N
1656371435.5,286046999.8,N
1656371455.3,286046999.9,N
1656371475.1,286047000.8,N
1656371495.9,286047000.3,N
1656371515.7,286047000.0,N
1656371535.6,286046999.9,N
1656371555.4,286047002.6,N
1656371575.2,286047002.8,N
1656371595.1,286047000.3,N
1656371596.0,286047000.3,N
1656371615.8,286047000.3,N
1656371635.7,286047000.3,N
1656371655.5,286047002.8,N
1656371675.3,286047002.3,N
1656371695.2,286047002.3,N
1656371715.0,286047002.6,N
1656371715.9,286047002.6,N
1656371735.8,286047002.5,N
1656371755.6,286047002.4,N
1656371775.4,286047002.6,N
1656371795.3,286047001.6,N
1656371815.1,286047001.5,N
1656371835.9,286047002.6,N
1656371855.7,286047002.7,N
1656371875.5,286047001.5,N
1656371895.4,286047002.0,N
1656371915.2,286047004.4,Y
1656371935.1,286047001.2,P
1656371936.0,286047001.2,P
1656371955.8,286046996.6,P
1656371975.6,286046997.2,N
1656371995.5,286046997.2,N
1656372015.3,286046996.8,N
1656372035.2,286046997.0,N
1656372055.9,286046997.8,N
1656372075.7,286046997.1,N
1656372095.6,286046997.5,N
1656372115.4,286046996.6,N
1656372135.2,286046996.9,N
1656372155.1,286046996.8,N
1656372156.0,286046996.8,N
1656372175.8,286046996.7,N
1656372195.7,286046997.7,N
1656372215.5,286046996.8,N
1656372235.3,286046997.5,N
1656372255.2,286046995.1,Y
1656372275.0,286046996.8,P
1656372275.9,286046996.8,P
1656372295.7,286046997.0,P
1656372315.6,286046996.5,Y
1656372335.4,286047002.5,P
1656372355.3,286047002.5,N
1656372375.1,286047000.2,N
1656372395.8,286047002.8,N
1656372415.7,286047002.5,N
1656372435.5,286047002.6,N
1656372455.3,286047002.4,N
1656372475.2,286047002.4,N
1656372495.0,286047000.0,N
1656372495.9,286047000.0,N
1656372515.8,286047002.8,N
1656372535.6,286047000.4,N
1656372555.4,286047000.5,N
1656372575.3,286047000.6,N
1656372595.1,286046998.1,N
1656372615.9,286047000.9,N
1656372635.7,286047000.7,N
1656372655.5,286047000.0,N
1656372675.4,286046999.7,N
1656372695.2,286047000.2,N
1656372715.1,286046999.7,N
1656372716.0,286046999.7,N
1656372735.8,286047002.5,N
1656372755.6,286047000.1,N
1656372775.5,286047000.9,N
1656372795.3,286047000.1,N
1656372815.1,286047000.0,N
1656372835.9,286047000.8,N
1656372855.7,286047000.8,N
1656372875.6,286046998.1,N
1656372895.4,286046998.1,N
1656372915.2,286046998.2,N
1656372935.1,286046999.7,N
1656372936.0,286046999.7,N
1656372955.8,286047001.0,N
1656372975.6,286047000.8,N
1656372995.5,286046998.5,N
1656373015.3,286046998.7,N
1656373035.2,286046996.5,Y
1656373055.9,286046999.2,P
1656373075.7,286046996.8,P
1656373095.6,286046999.4,N
1656373115.4,286046998.4,N
1656373135.2,286046999.6,N
1656373155.1,286046999.2,N
1656373156.0,286046999.2,N
1656373175.8,286046996.5,Y
1656373195.7,286046998.9,P
1656373215.5,286046999.0,P
1656373235.3,286046998.7,P
1656373255.2,286046998.7,Y
1656373275.0,286047000.2,P
1656373275.9,286047000.2,N
1656373295.8,286047000.3,N
1656373315.6,286047000.3,N
1656373335.4,286047000.9,N
1656373355.3,286046998.1,Y
1656373375.1,286047000.8,P
1656373395.9,286047000.9,N
1656373415.7,286047000.8,N
1656373435.5,286047000.6,N
1656373455.4,286047000.6,N
1656373475.2,286047000.6,N
1656373495.0,286047000.4,N
1656373495.9,286047000.4,N
1656373515.8,286046999.8,N
1656373535.6,286047001.8,Y
1656373555.5,286047002.1,P
1656373575.3,286047000.6,N
1656373595.1,286047000.6,N
1656373615.9,286047001.1,N
1656373635.7,286047002.6,Y
1656373655.5,286047001.1,P
1656373675.4,286047000.6,P
1656373695.2,286046998.6,P
1656373715.1,286046998.2,N
1656373716.0,286046998.2,N
1656373735.8,286046998.8,N
1656373755.6,286046999.0,N
1656373775.5,286046999.2,N
1656373795.3,286046999.1,N
1656373815.1,286046999.1,N
1656373835.9,286046999.3,N
1656373855.7,286046998.8,N
1656373875.6,286046999.6,N
1656373895.4,286046999.2,N
1656373915.2,286046999.2,N
1656373935.1,286046996.6,Y
1656373936.0,286046996.6,P
1656373955.8,286046999.2,N
1656373975.7,286046998.8,N
1656373995.5,286046999.3,N
1656374015.3,286046996.6,Y
1656374035.2,286047001.2,P
1656374055.0,286047000.1,N
1656374055.9,286047000.1,N
1656374075.7,286047002.7,N
1656374095.6,286047002.1,N
1656374115.4,286047001.6,N
1656374135.3,286047002.2,N
1656374155.1,286047002.6,N
1656374156.0,286047002.6,N
1656374175.8,286047002.3,N
1656374195.7,286047002.2,N
1656374215.5,286047000.2,N
1656374235.3,286047002.8,N
1656374255.2,286047000.3,N
1656374275.0,286047001.0,N
1656374275.9,286047001.0,N
1656374295.8,286047000.7,N
1656374315.6,286047001.1,N
1656374335.4,286046998.5,N
1656374355.3,286047001.1,N
1656374375.1,286047000.0,N
1656374395.9,286047000.4,N
